Location: Berlin
(52.5170°N, 13.4000°E)
Time: 06:39:02
(UTC+02:00)

ISS - Pass Details

Date: 17 July 2018
Orbit: 402 x 408 km, 51.6° (Epoch: 18 July)

Event Time Altitude Azimuth Distance (km) Brightness Sun altitude
Exits shadow 01:41:11 28° 238° (WSW) 789 -2.7 -16.0°
Maximum altitude 01:42:41 62° 167° (SSE) 463 -3.9 -16.0°
Drops below altitude 10° 01:45:57 10° 86° (E) 1,471 -0.8 -15.9°
Sets 01:48:03 0° 83° (E) 2,334 0.2 -15.8°
